Content
SEND FEEDBACK

Daily
Averages
Monthly
Summary
United States of America

AGAT, GUAM


Home > North America > United States > Guam
Elevation: 364 feet     Latitude: 13 33N     Longitude: 144 50E

WEATHER
 
SELECT A DAY
Number of Records: 208,892;   Date Range: 1/1/95 - 7/22/14
 
SHARE

PRINT THIS DATA

[ ← Previous Day ]
WEATHER ALMANAC - OCTOBER 26, 2013
[ Next Day → ]
[ °C ]   °F
Weather ElementAverageHighLow
Temperature81.6 °F87.1 °F (1:54 pm)75 °F (2:54 am)
Dewpoint76 °F78.1 °F (1:54 pm)73.4 °F (4:18 pm)
Humidity83.3 %97 % (3:54 am)69 % (2:54 pm)
Barometer29.84 in29.88 in (7:05 am)29.79 in (2:54 pm)
Wind Speed5.8 mph12.7 mph (1:54 pm)
Weather ElementAverage
Visibility10 mi
Wind DirectionS (178.3 °)

Weather ElementTotal
Precipitation0.03 in
Cooling Degree Days16.1 (Base 65)
Growing Degree Days31.1 (Base 50)
Averaged from 29 records on October 26, 2013
WEATHER CONDITIONS BREAKOUT
WIND DIRECTION BREAKOUT
Weather ElementAverageHighLow
Temperature81.6 °F87.1 °F (1:54 pm)75 °F (2:54 am)
Dewpoint76 °F78.1 °F (1:54 pm)73.4 °F (4:18 pm)
Humidity83.3 %97 % (3:54 am)69 % (2:54 pm)
Barometer29.84 in29.88 in (7:05 am)29.79 in (2:54 pm)
Wind Speed5.8 mph12.7 mph (1:54 pm)
Weather ElementAverage
Visibility10 mi
Wind DirectionS (178.3 °)

Weather ElementTotal
Precipitation0.03 in
Cooling Degree Days16.1 (Base 65)
Growing Degree Days31.1 (Base 50)
Averaged from 29 records on October 26, 2013
WEATHER CONDITIONS BREAKOUT
WIND DIRECTION BREAKOUT
WEATHER BY HOUR - OCTOBER 26, 2013
[ °C ]   °F
Local TimeTemperatureDewpointHumidityBarometerVisibilityWind DirectionWind SpeedGust SpeedPrecipitationEventsConditions
1:54 AM78.1 °F75.0 °F90 %29.82 in10.0 miCalmClear
2:54 AM75.0 °F73.9 °F96 %29.82 in10.0 miCalmClear
3:54 AM75.9 °F75.0 °F97 %29.82 in10.0 miCalmClear
4:54 AM78.1 °F75.9 °F93 %29.82 in10.0 miCalmClear
5:54 AM75.9 °F75.0 °F97 %29.83 in10.0 miCalmClear
6:54 AM78.1 °F75.9 °F93 %29.85 in10.0 miNE (40°)3.5 mphClear
7:05 AM80.6 °F77.0 °F89 %29.88 in10.0 miCalmPartly Cloudy
7:54 AM82.9 °F77.0 °F82 %29.86 in10.0 miNNE (20°)3.5 mphClear
8:54 AM82.9 °F77.0 °F82 %29.87 in10.0 miNorth (350°)4.6 mphClear
9:54 AM84.0 °F75.0 °F74 %29.87 in10.0 miNNW (340°)5.8 mphClear
10:54 AM82.9 °F77.0 °F82 %29.86 in10.0 miNNW (340°)5.8 mph0.00 inOvercast
11:19 AM84.2 °F77.0 °F79 %29.87 in10.0 miNNW (340°)9.2 mphMostly Cloudy
11:54 AM82.9 °F77.0 °F82 %29.83 in10.0 miNNW (330°)10.4 mphScattered Clouds
12:22 PM82.4 °F75.2 °F79 %29.85 in10.0 miNNW (340°)8.1 mphMostly Cloudy
12:45 PM86.0 °F75.2 °F70 %29.84 in10.0 miNorth (360°)10.4 mphScattered Clouds
12:54 PM84.9 °F75.9 °F74 %29.81 in10.0 miNNW (340°)8.1 mphPartly Cloudy
1:54 PM87.1 °F78.1 °F74 %29.80 in10.0 miNNW (340°)12.7 mphPartly Cloudy
2:54 PM87.1 °F75.9 °F69 %29.79 in10.0 miNorth (350°)12.7 mphPartly Cloudy
3:52 PM84.2 °F75.2 °F74 %29.82 in10.0 miNorth (350°)9.2 mphMostly Cloudy
3:54 PM84.9 °F75.9 °F74 %29.80 in10.0 miNorth (360°)8.1 mphMostly Cloudy
4:18 PM84.2 °F73.4 °F70 %29.82 in10.0 miNNE (20°)9.2 mphScattered Clouds
4:54 PM84.0 °F77.0 °F79 %29.81 in10.0 miNorth (350°)9.2 mphPartly Cloudy
5:54 PM82.0 °F75.9 °F82 %29.82 in10.0 miNorth (360°)6.9 mphScattered Clouds
6:54 PM81.0 °F75.9 °F85 %29.83 in10.0 miNorth (10°)5.8 mphScattered Clouds
7:54 PM79.0 °F77.0 °F94 %29.85 in10.0 miNNE (30°)6.9 mph0.00 inMostly Cloudy
8:54 PM80.1 °F75.9 °F87 %29.86 in10.0 miNE (50°)4.6 mphScattered Clouds
9:54 PM79.0 °F75.9 °F90 %29.87 in10.0 miEast (80°)3.5 mph0.01 inMostly Cloudy
10:54 PM80.1 °F77.0 °F90 %29.86 in10.0 miNNE (30°)3.5 mphScattered Clouds
11:54 PM80.1 °F77.0 °F90 %29.84 in10.0 miNE (40°)5.8 mph0.02 inRainLight Rain
Hourly data recorded from PGUM, located miles away from Agat, Guam







STORIES FROM OUR PARTNERS